Location: Brad
(46.1333°N, 22.7833°E)
Time: 10:23:42
(UTC+00:00)

Cosmos 1386 Rocket - Pass Details

Date: 03 February 2023
Orbit: 929 x 1005 km, 83.0° (Epoch: 20 March)

Event Time Altitude Azimuth Distance (km) Brightness Sun altitude
Rises 17:32:42 0° 352° (N) 3,594 7.5 -20.4°
Reaches altitude 10° 17:35:12 10° 353° (N) 2,646 6.8 -20.8°
Maximum altitude 17:41:14 83° 81° (E) 946 4.3 -21.8°
Drops below altitude 10° 17:47:17 10° 170° (S) 2,646 6.7 -22.9°
Sets 17:49:45 0° 171° (S) 3,594 7.4 -23.3°
